Regional Weather Roundup
Issued by NWS

Home | Current Version | Previous Version | Text Only | Print | Product List | Glossary On
Versions: 1 2 3 4 5 6 7 8 9 10 11 12 13 14 15 16 17 18 19 20 21 22 23 24 25 26 27 28 29 30 31 32 33 34 35 36 37 38 39 40 41 42 43 44 45 46 47 48 49 50
000
ASUS42 KTBW 222110
RWRFL
FLORIDA REGIONAL WEATHER ROUNDUP
NATIONAL WEATHER SERVICE TAMPA BAY RUSKIN FL
500 PM EDT TUE JUL 22 2014

NOTE: "FAIR" INDICATES FEW OR NO CLOUDS BELOW 12,000 FEET WITH NO
SIGNIFICANT WEATHER AND/OR OBSTRUCTIONS TO VISIBILITY.


FLZ001>010-012>015-112-114-115-222200-
PANHANDLE FLORIDA

CITY           SKY/WX    TMP DP  RH WIND       PRES   REMARKS
PENSACOLA      MOSUNNY   84  73  69 SE10      30.02F
PENSACOLA NAS  PTSUNNY   85  74  69 S10       30.01F
MILTON NAS     PTSUNNY   79  68  69 SE5       30.02F
CRESTVIEW      PTSUNNY   82  74  76 E5        30.03F
DUKE FIELD     PTSUNNY   83  76  79 NE3       30.02F
VALPARAISO     PTSUNNY   85  74  70 SW7       30.01F
MARY ESTHER    MOSUNNY   85  73  66 S9        30.01F
TRI COUNTY     FAIR      86  73  65 S6        30.02F
PANAMA CITY    FAIR      86  74  67 S7        30.02F
TYNDALL AFB    PTSUNNY   85  74  70 SW8       30.04F
APALACHICOLA   SUNNY     88  72  58 S8        30.02F

STATION/POSITION SKY/WX   TEMP    WIND        PRES    WAVE   SWELL
                          AIR SEA DIR/SP/G            HT/PER HT/PER
                          (F)     (DEG/KT/KT) (MB)    (FT/S) (FT/S)
30.1N   87.6W              83 84  200/  6/  8 1016.4F   1/ 4
29.2N   88.2W              82 86  190/ 10/ 12 1016.3
28.8N   86.0W              81 84  250/  8/ 10 1016.3F   1/ 3
PANAMA CITY BEAC           83 83  220/  5/  5 1016.7F
CAPE SAN BLAS    NOT AVBL
TOWER C                    83     220/  3/  4 1016.8F
28.5N   84.5W              85 89  280/  2/  4 1017.0F   1/ 3

$$
FLZ011-016>038-118-127-128-134-139-239-222200-
NORTH FLORIDA

CITY           SKY/WX    TMP DP  RH WIND       PRES   REMARKS
MARIANNA       PTSUNNY   90  71  53 CALM      30.00F HX  96
TALLAHASSEE    PTSUNNY   91  67  44 NW3       30.02F
PERRY          MOSUNNY   88  70  55 SW9       30.03F
CROSS CITY       N/A     89  74  60 VRB3      30.03F HX  98
GAINESVILLE    PTSUNNY   86  73  65 NE10      30.02S
MAYPORT NAS    PTSUNNY   86  74  67 NE12      30.05F
JACKSONVILLE   PTSUNNY   84  74  71 NE7       30.04R
JAX NAS        PTSUNNY   89  72  56 E10       30.05S HX  96
JAX CRAIG      PTSUNNY   86  75  69 E10       30.05S HX  95
JAX CECIL      RAIN      77  75  94 E7        30.04F
FERNANDINA BEA FAIR      84  73  70 E8        30.04S
ST AUGUSTINE   PTSUNNY   87  75  67 E12       30.06S HX  96

STATION/POSITION SKY/WX   TEMP    WIND        PRES    WAVE   SWELL
                          AIR SEA DIR/SP/G            HT/PER HT/PER
                          (F)     (DEG/KT/KT) (MB)    (FT/S) (FT/S)
SHELL POINT                85     160/  7/  8   N/A
KEATON BEACH               83     240/  5/  5 1017.2F
CEDAR KEY                  84     250/  6/  9 1017.8F
FERNANDINA                 84 84  110/  5/  8 1017.2R
30.7N   81.3W                 85                N/A     2/ 7
MAYPORT                    83 84   80/  9/ 13   N/A
31.4N   80.9W              81 85  110/ 10/ 12 1017.6F   2/ 7   2/ 7
ST AUGUSTINE               81      70/ 11/ 13 1018.3S

$$
FLZ040-043>046-052-053-057-058-063-144-222200-
INTERIOR CENTRAL FLORIDA

CITY           SKY/WX    TMP DP  RH WIND       PRES   REMARKS
OCALA          PTSUNNY   84  68  58 SW10G16   30.03S
LEESBURG       SUNNY     92  69  47 S6        30.03S HX  97
SANFORD        TSTM      84  76  76 E16G24    30.04R
ORLANDO EXEC   CLOUDY    87  77  72 E16       30.03R HX  99
ORLANDO INTL   PTSUNNY   86  75  69 E17       30.03R HX  95
KISSIMMEE      PTSUNNY   91  73  55 NW6       30.03R HX 100
WINTER HAVEN   MOSUNNY   91  71  51 VRB3      30.04S HX  97
LAKELAND       MOSUNNY   93  66  40 W3        30.03S HX  96
BARTOW         MOSUNNY   90  70  51 CALM      30.04R HX  95
OKEECHOBEE       N/A     72  72 100 MISG      30.07S

$$
FLZ041-047-054-059-064-141-147-222200-
EAST CENTRAL FLORIDA

CITY           SKY/WX    TMP DP  RH WIND       PRES   REMARKS
ORMOND BEACH   MOSUNNY   84  75  74 E12       30.04F
DAYTONA BEACH  PTSUNNY   86  75  69 E9        30.03F HX  95
DELAND         PTCLDY    86  75  70 E9        30.04F HX  95
NEW SMYRNA BEA MOSUNNY   82  77  83 E9        30.05F
JFK SPACE CTR  CLOUDY    78  78 100 CALM      30.04F
TITUSVILLE     PTSUNNY   75  72  88 CALM      30.06S FOG
CAPE CANAVERAL CLOUDY    83  76  78 S7        30.05R
PATRICK AFB    CLOUDY    81  73  78 W18G24    30.06R THUNDER
MELBOURNE      TSTM      74  71  91 W16G36    30.07R FOG
VERO BEACH     CLOUDY    76  76 100 W5        30.04F
FT PIERCE      CLOUDY    79  75  87 SW5       30.03F
STUART         PTSUNNY   81  73  78 E6        30.05F

STATION/POSITION SKY/WX   TEMP    WIND        PRES    WAVE   SWELL
                          AIR SEA DIR/SP/G            HT/PER HT/PER
                          (F)     (DEG/KT/KT) (MB)    (FT/S) (FT/S)
28.5N   80.2W              83 85  120/  8/ 10 1017.6F
28.9N   78.5W              80 83  160/ 16/ 17 1018.4F   4/ 6   2/ 7
TRIDENT PIER               84 87  120/  4/  8 1016.8F
28.4N   80.5W                 86                N/A     2/ 7
27.6N   80.2W                 84                N/A     2/ 7

$$
FLZ050-056-061-142-242-148-248-149-249-151-251-155-255-
160-260-222200-
WEST CENTRAL FLORIDA

CITY           SKY/WX    TMP DP  RH WIND       PRES   REMARKS
CRYSTAL RIVER  FAIR      90  70  51 CALM      30.04S HX  95
INVERNESS      LGT RAIN  75  70  83 CALM      30.05F
BROOKSVILLE    PTSUNNY   85  73  67 SE3       30.04S
ZEPHYRHILLS    FAIR      90  64  43 SW6       30.04R
CLEARWATER     PTSUNNY   90  73  57 W9        30.03F HX  98
TAMPA INTL     PTSUNNY   88  73  61 W8        30.03F HX  95
TAMPA EXEC     CLOUDY    90  72  55 SW7       30.03R HX  96
PLANT CITY     MOSUNNY   95  66  38 SW5       30.05R HX  98
MACDILL AFB    MOSUNNY   89  79  72 SW6       30.04S HX 104
ST PETERSBURG  MOSUNNY   88  75  65 W8        30.02S HX  97
SARASOTA       CLOUDY    87  73  62 W8        30.03S
VENICE         FAIR      84  75  74 W5        30.05F

STATION/POSITION SKY/WX   TEMP    WIND        PRES    WAVE   SWELL
                          AIR SEA DIR/SP/G            HT/PER HT/PER
                          (F)     (DEG/KT/KT) (MB)    (FT/S) (FT/S)
CEDAR KEY                  84     250/  6/  9 1017.8F
28.5N   84.5W              85 89  280/  2/  4 1017.0F   1/ 3
27.3N   84.3W                 89                N/A     1/ 5
CLEARWATER BEACH           85 89  280/  7/  9 1016.9F
MIDDLE TAMPA BAY           85     280/  9/ 10 1017.5R
VENICE                     85 90  280/  4/  5 1016.8F

$$
FLZ066-069-070-075>078-162-262-165-265-222200-
SOUTHWEST FLORIDA AND KEYS

CITY           SKY/WX    TMP DP  RH WIND       PRES   REMARKS
PUNTA GORDA    LGT RAIN  81  77  88 NW7       30.06F
FT MYERS       CLOUDY    78  75  90 CALM      30.04R
SOUTHWEST INTL CLOUDY    76  72  87 CALM      30.05F
NAPLES         CLOUDY    79  74  84 E6        30.03F
MARATHON       PTSUNNY   87  74  64 VRB7      30.03F HX  95
KEY WEST NAS   PTSUNNY   87  74  64 N6        30.03F HX  95
KEY WEST INTL  CLOUDY    88  73  61 N9        30.03F HX  95

STATION/POSITION SKY/WX   TEMP    WIND        PRES    WAVE   SWELL
                          AIR SEA DIR/SP/G            HT/PER HT/PER
                          (F)     (DEG/KT/KT) (MB)    (FT/S) (FT/S)
VENICE                     85 90  280/  4/  5 1016.8F
NAPLES                     78 92   60/  5/  7 1017.6F
DRY TORTUGAS               85      40/  4/  5 1017.0F
NW FL BAY                  84     280/  2/  3 1017.8F
SAND KEY                   83      10/  6/  8 1017.0F
SOMBRERO KEY               83     350/  6/  7 1017.8S
LONG KEY                   83 88  320/  4/  6 1017.9F
MOLASSES REEF              84 86   70/  2/  2 1017.1S

$$
FLZ067-068-071>074-168-172>174-222200-
SOUTHEAST FLORIDA

CITY           SKY/WX    TMP DP  RH WIND       PRES   REMARKS
W PALM BEACH   TSTM      79  77  94 E10       30.03S FOG
FT LAUDER-EXEC TSTM      80  78  94 E13       30.05R FOG
FT LAUDERDALE  PTSUNNY   82  76  81 NE6       30.03R
POMPANO BEACH    N/A     86  74  67 NW6       30.04R THUNDER
PEMBROKE PINES PTSUNNY   87  74  64 CALM      30.04S HX  95
OPA LOCKA      MOSUNNY   90  73  57 NW9       30.03S HX  98
MIAMI          PTSUNNY   89  73  59 VRB5      30.03S HX  97
WEST KENDALL   MOSUNNY   90  74  59 VRB6      30.03S HX  99
HOMESTEAD      PTSUNNY   88  73  61 W7        30.03S HX  95

STATION/POSITION SKY/WX   TEMP    WIND        PRES    WAVE   SWELL
                          AIR SEA DIR/SP/G            HT/PER HT/PER
                          (F)     (DEG/KT/KT) (MB)    (FT/S) (FT/S)
PORT EVERGLADES            84     140/  8/ 10 1017.1
VIRGINIA KEY               85 87  170/  3/  3   N/A
LAKE WORTH                 83 85              1016.9R
FOWEY ROCKS                84 85  140/  5/  5 1017.4F
SETTLEMENT POINT           80     120/ 12/ 13 1018.2F

$$



USA.gov is the U.S. government's official web portal to all federal, state and local government web resources and services.